[[{"header":{"parameterUnit":"m.s-1","parameterCategory":1,"la1":30.2992,"la2":30.254,"lo1":-89.0895,"lo2":-89.0443,"dy":0.0025,"dx":0.0025,"nx":19,"ny":19,"refTime":"2026-05-24T03:00:00:Z","depth":0,"parameterNumber":2,"parameterNumberName":"U-component_of_WINDS"},"data":[0,0,0,-4.239,-4.2393,-4.2522,-4.2522,-4.2718,-4.272,0,0,0,0,0,0,0,0,0,0,0,-4.2371,-4.2373,-4.239,-4.2393,-4.2522,-4.2522,-4.2717,-4.272,0,0,0,0,0,0,0,0,0,0,0,-4.237,-4.2372,-4.2375,-4.2394,-4.2522,-4.2522,-4.2717,-4.2609,0,0,0,0,0,0,0,0,0,0,-4.2478,-4.248,-4.2372,-4.2375,-4.2395,-4.2522,-4.2522,-4.2603,-4.2615,-4.2673,0,-4.2729,0,-4.2728,-4.2735,-4.2736,0,0,0,-4.2379,-4.247,-4.2487,-4.2375,-4.2396,-4.2522,-4.246,-4.2609,-4.2624,-4.2689,-4.2732,-4.2738,-4.2731,-4.2736,-4.2737,-4.3116,-4.3119,0,0,-4.2372,-4.2405,-4.2477,-4.2497,-4.248,-4.2456,-4.2464,-4.2618,-4.2666,-4.2732,-4.2742,-4.2734,-4.2738,-4.2739,-4.3114,-4.3117,0,0,0,-4.2361,-4.24,-4.2413,-4.249,-4.2511,-4.246,-4.2469,-4.2659,-4.266,-4.2744,-4.2737,-4.2739,-4.2742,-4.3111,-4.3115,-4.3268,0,0,0,-4.2356,-4.2394,-4.2411,-4.2432,-4.2509,-4.2587,-4.2508,-4.265,-4.2666,-4.2736,-4.2739,-4.2744,-4.3108,-4.3113,-4.3258,-4.3334,0,0,0,-4.2356,-4.2394,-4.2419,-4.2434,-4.249,-4.2583,-4.2593,-4.2652,-4.2662,-4.2736,-4.2745,-4.3107,-4.3112,-4.3249,-4.3319,-4.3443,0,0,0,-4.2365,-4.2554,-4.2422,-4.2629,-4.2489,-4.2677,-4.2592,-4.273,-4.2811,-4.274,-4.3109,-4.3115,-4.3246,-4.331,-4.3434,-4.3552,-4.3605,0,0,-4.2621,-4.2586,-4.2705,-4.2591,-4.281,-4.2655,-4.2896,-4.294,-4.2917,-4.3051,-4.306,-4.3261,-4.3318,-4.3441,-4.389,-4.3932,0,0,0,-4.2797,-4.2883,-4.2934,-4.3013,-4.305,-4.3088,-4.3091,-4.3106,-4.3218,-4.2993,-4.3338,-4.3371,-4.3442,-4.3497,-4.3533,-4.359,-4.3142,-4.3141,-4.3141,-4.3207,-4.3166,-4.336,-4.3336,-4.3413,-4.3413,-4.3471,-4.3492,-4.343,-4.3512,-4.3552,-4.3829,-4.3895,-4.3922,-4.3983,-4.3611,-4.3612,-4.3612,-4.3613,-4.3578,-4.3692,-4.3603,-4.376,-4.3715,-4.3846,-4.3853,-4.3804,-4.3918,-4.3796,-4.3856,-4.3727,-4.3969,-4.402,-4.3624,-4.3622,-4.3621,-4.362,-4.3619,-4.3841,-4.3889,-4.3905,-4.4013,-4.4101,-4.4068,-4.4182,-4.4138,-4.4097,-4.4156,-4.4192,-4.419,-4.4181,-4.4177,-4.4178,-4.4179,-4.4179,-4.418,-4.4181,-4.4109,-4.4121,-4.4222,-4.4277,-4.432,-4.4372,-4.4373,-4.4415,-4.4449,-4.4408,-4.4408,-4.4336,-4.4001,-4.3917,-4.4195,-4.4193,-4.4191,-4.419,-4.4189,-4.4499,-4.4403,-4.456,-4.4604,-4.4663,-4.4752,-4.4694,-4.4782,-4.481,-4.4867,-4.4782,-4.4541,-4.4502,-4.4473,-4.4403,-4.4791,-4.4791,-4.4791,-4.4791,-4.4721,-4.4696,-4.4845,-4.4918,-4.4984,-4.4947,-4.5124,-4.5126,-4.5112,-4.5127,-4.5064,-4.4968,-4.494,-4.4917,-4.4879,-4.4813,-4.5296,-4.5296,-4.5297,-4.4958,-4.4937,-4.5097,-4.5083,-4.5125,-4.5162,-4.5327,-4.5413,-4.5378,-4.5316,-4.5137,-4.5115,-4.4959,-4.4911,-4.4846,-4.4787,-4.4666,0,0]},{"header":{"parameterUnit":"m.s-1","parameterCategory":1,"la1":30.2992,"la2":30.254,"lo1":-89.0895,"lo2":-89.0443,"dy":0.0025,"dx":0.0025,"nx":19,"ny":19,"refTime":"2026-05-24T03:00:00:Z","depth":0,"parameterNumber":3,"parameterNumberName":"V-component_of_WINDS"},"data":[0,0,0,1.2716,1.2722,1.2985,1.2986,1.333,1.3333,0,0,0,0,0,0,0,0,0,0,0,1.2638,1.2641,1.2716,1.2722,1.2985,1.2986,1.333,1.3333,0,0,0,0,0,0,0,0,0,0,0,1.2637,1.264,1.2643,1.2723,1.2985,1.2986,1.3329,1.3129,0,0,0,0,0,0,0,0,0,0,1.2873,1.2799,1.2639,1.2643,1.2725,1.2984,1.2986,1.3119,1.3141,1.3213,0,1.3272,0,1.3308,1.3356,1.3358,0,0,0,1.2724,1.2781,1.2851,1.2643,1.2727,1.2984,1.2867,1.3132,1.3157,1.3242,1.3277,1.329,1.3313,1.3359,1.336,1.3759,1.376,0,0,1.2709,1.2687,1.2834,1.2867,1.2822,1.2858,1.2875,1.3147,1.3185,1.3278,1.3298,1.3319,1.3361,1.3363,1.3757,1.3759,0,0,0,1.2667,1.2677,1.274,1.2853,1.29,1.2866,1.2885,1.3173,1.3195,1.3301,1.3323,1.3363,1.3367,1.3755,1.3758,1.3825,0,0,0,1.2658,1.2652,1.2734,1.2723,1.2895,1.3039,1.2905,1.3176,1.3208,1.3321,1.3363,1.337,1.3753,1.3756,1.3819,1.3863,0,0,0,1.2622,1.2647,1.2685,1.2721,1.2833,1.3035,1.3073,1.3184,1.3221,1.3358,1.3371,1.3752,1.3756,1.3814,1.3854,1.3963,0,0,0,1.2577,1.2742,1.2685,1.2878,1.283,1.3072,1.3071,1.3253,1.3378,1.3365,1.3753,1.3757,1.3812,1.3848,1.3957,1.4053,1.409,0,0,1.2773,1.2764,1.288,1.2837,1.3082,1.3034,1.3292,1.3429,1.3464,1.366,1.367,1.3821,1.3853,1.3962,1.4298,1.4326,0,0,0,1.2934,1.3017,1.3087,1.3203,1.3309,1.3406,1.3505,1.3557,1.3724,1.3558,1.3889,1.3909,1.3974,1.4021,1.4046,1.4105,1.3777,1.3777,1.3776,1.3181,1.3215,1.3409,1.3475,1.3588,1.3689,1.3786,1.3873,1.3875,1.3953,1.4013,1.4212,1.4266,1.4285,1.4346,1.4063,1.4063,1.4063,1.4064,1.3474,1.3599,1.3596,1.3784,1.382,1.398,1.4085,1.4081,1.4239,1.4169,1.4228,1.4152,1.4315,1.4371,1.4069,1.4068,1.4067,1.4067,1.4067,1.3643,1.3709,1.3765,1.3938,1.4068,1.413,1.4281,1.4308,1.4336,1.4394,1.4463,1.4462,1.4468,1.4424,1.4425,1.4425,1.4426,1.4426,1.4427,1.3797,1.3859,1.3981,1.4107,1.4187,1.4295,1.4398,1.4479,1.4576,1.4585,1.4586,1.4584,1.4322,1.4258,1.4438,1.4436,1.4434,1.4433,1.4433,1.4089,1.4027,1.4215,1.4294,1.4447,1.4577,1.4608,1.477,1.4841,1.4916,1.49,1.4701,1.4696,1.4677,1.4625,1.4889,1.4889,1.4889,1.4889,1.4234,1.4232,1.4432,1.4558,1.4684,1.4732,1.4949,1.5032,1.5109,1.5157,1.5122,1.5053,1.5032,1.5041,1.5013,1.4965,1.531,1.531,1.5311,1.4418,1.4429,1.4607,1.4677,1.4799,1.4905,1.5111,1.526,1.5335,1.5328,1.5195,1.5178,1.5067,1.5029,1.5023,1.498,1.4893,0,0]}]]